Time,TemperatureF,DewpointF,PressureIn,WindDirection,WindDirectionDegrees,WindSpeedMPH,WindSpeedGustMPH,Humidity,HourlyPrecipIn,Conditions,Clouds,dailyrainin,SoftwareType,DateUTC
2017-07-25 00:00:00,65.3,62.0,29.97,North,0,0.0,0.0,89,0.00,,,0.00,WUHU216HW,2017-07-25 04:00:00,
2017-07-25 00:05:00,65.3,62.0,29.97,North,0,0.0,0.0,89,0.00,,,0.00,WUHU216HW,2017-07-25 04:05:00,
2017-07-25 00:29:00,64.6,61.4,29.97,North,0,0.0,0.0,89,0.00,,,0.00,WUHU216HW,2017-07-25 04:29:00,
2017-07-25 00:30:00,64.6,61.4,29.97,North,0,0.0,0.0,89,0.00,,,0.00,WUHU216HW,2017-07-25 04:30:00,
2017-07-25 00:35:00,64.6,61.4,29.97,North,0,0.0,0.0,89,0.00,,,0.00,WUHU216HW,2017-07-25 04:35:00,
2017-07-25 00:59:00,64.4,61.2,29.98,North,0,0.0,0.0,89,0.00,,,0.00,WUHU216HW,2017-07-25 04:59:00,
2017-07-25 01:00:00,64.4,61.2,29.98,North,0,0.0,0.0,89,0.00,,,0.00,WUHU216HW,2017-07-25 05:00:00,
2017-07-25 01:01:00,64.4,61.2,29.98,North,0,0.0,0.0,89,0.00,,,0.00,WUHU216HW,2017-07-25 05:01:00,
2017-07-25 01:06:00,64.4,61.2,29.98,North,0,0.0,0.0,89,0.00,,,0.00,WUHU216HW,2017-07-25 05:06:00,
2017-07-25 01:30:00,64.4,61.2,29.99,North,0,0.0,0.0,89,0.00,,,0.00,WUHU216HW,2017-07-25 05:30:00,
2017-07-25 01:35:00,64.4,61.2,29.99,North,0,0.0,0.0,89,0.00,,,0.00,WUHU216HW,2017-07-25 05:35:00,
2017-07-25 01:59:00,64.3,61.0,29.98,North,0,0.0,0.0,89,0.00,,,0.00,WUHU216HW,2017-07-25 05:59:00,
2017-07-25 02:00:00,64.3,61.0,29.98,North,0,0.0,0.0,89,0.00,,,0.00,WUHU216HW,2017-07-25 06:00:00,
2017-07-25 02:05:00,64.3,61.0,29.98,North,0,0.0,0.0,89,0.00,,,0.00,WUHU216HW,2017-07-25 06:05:00,
2017-07-25 02:29:00,64.4,61.6,29.99,North,0,0.0,0.0,90,0.00,,,0.00,WUHU216HW,2017-07-25 06:29:00,
2017-07-25 02:30:00,64.4,61.6,29.99,North,0,0.0,0.0,90,0.00,,,0.00,WUHU216HW,2017-07-25 06:30:00,
2017-07-25 02:35:00,64.4,61.6,29.99,North,0,0.0,0.0,90,0.00,,,0.00,WUHU216HW,2017-07-25 06:35:00,
2017-07-25 02:59:00,64.1,60.8,29.99,North,0,0.0,0.0,89,0.00,,,0.00,WUHU216HW,2017-07-25 06:59:00,
2017-07-25 03:00:00,64.1,60.8,29.99,North,0,0.0,0.0,89,0.00,,,0.00,WUHU216HW,2017-07-25 07:00:00,
2017-07-25 03:05:00,64.1,60.8,29.99,North,0,0.0,0.0,89,0.00,,,0.00,WUHU216HW,2017-07-25 07:05:00,
2017-07-25 03:29:00,64.1,60.8,29.98,North,0,0.0,0.0,89,0.00,,,0.00,WUHU216HW,2017-07-25 07:29:00,
2017-07-25 03:30:00,64.1,60.8,29.98,North,0,0.0,0.0,89,0.00,,,0.00,WUHU216HW,2017-07-25 07:30:00,
2017-07-25 03:35:00,64.1,60.8,29.98,North,0,0.0,0.0,89,0.00,,,0.00,WUHU216HW,2017-07-25 07:35:00,
2017-07-25 03:59:00,63.7,60.5,29.99,North,0,0.0,0.0,89,0.00,,,0.00,WUHU216HW,2017-07-25 07:59:00,
2017-07-25 04:00:00,63.7,60.5,29.99,North,0,0.0,0.0,89,0.00,,,0.00,WUHU216HW,2017-07-25 08:00:00,
2017-07-25 04:05:00,63.7,60.5,29.99,North,0,0.0,0.0,89,0.00,,,0.00,WUHU216HW,2017-07-25 08:05:00,
2017-07-25 04:30:00,63.4,60.1,29.99,North,0,0.0,0.0,89,0.00,,,0.00,WUHU216HW,2017-07-25 08:30:00,
2017-07-25 04:35:00,63.4,60.1,29.99,North,0,0.0,0.0,89,0.00,,,0.00,WUHU216HW,2017-07-25 08:35:00,
2017-07-25 04:59:00,63.5,60.3,30.00,North,0,0.0,0.0,89,0.00,,,0.00,WUHU216HW,2017-07-25 08:59:00,
2017-07-25 05:00:00,63.5,60.3,30.00,North,0,0.0,0.0,89,0.00,,,0.00,WUHU216HW,2017-07-25 09:00:00,
2017-07-25 05:05:00,63.5,60.3,30.00,North,0,0.0,0.0,89,0.00,,,0.00,WUHU216HW,2017-07-25 09:05:00,
2017-07-25 05:29:00,63.5,60.3,30.02,North,0,0.0,0.0,89,0.00,,,0.00,WUHU216HW,2017-07-25 09:29:00,
2017-07-25 05:30:00,63.5,60.3,30.02,North,0,0.0,0.0,89,0.00,,,0.00,WUHU216HW,2017-07-25 09:30:00,
2017-07-25 05:35:00,63.5,60.3,30.02,North,0,0.0,0.0,89,0.00,,,0.00,WUHU216HW,2017-07-25 09:35:00,
2017-07-25 05:59:00,63.7,60.5,30.04,North,0,0.0,0.0,89,0.00,,,0.00,WUHU216HW,2017-07-25 09:59:00,
2017-07-25 06:00:00,63.7,60.5,30.04,North,0,0.0,0.0,89,0.00,,,0.00,WUHU216HW,2017-07-25 10:00:00,
2017-07-25 06:05:00,63.7,60.5,30.04,North,0,0.0,0.0,89,0.00,,,0.00,WUHU216HW,2017-07-25 10:05:00,
2017-07-25 06:29:00,63.7,60.5,30.03,North,0,0.0,0.0,89,0.00,,,0.00,WUHU216HW,2017-07-25 10:29:00,
2017-07-25 06:30:00,63.7,60.5,30.03,North,0,0.0,0.0,89,0.00,,,0.00,WUHU216HW,2017-07-25 10:30:00,
2017-07-25 06:35:00,63.7,60.5,30.03,North,0,0.0,0.0,89,0.00,,,0.00,WUHU216HW,2017-07-25 10:35:00,
2017-07-25 07:00:00,64.1,60.8,30.03,North,0,0.0,0.0,89,0.00,,,0.00,WUHU216HW,2017-07-25 11:00:00,
2017-07-25 07:05:00,64.1,60.8,30.03,North,0,0.0,0.0,89,0.00,,,0.00,WUHU216HW,2017-07-25 11:05:00,
2017-07-25 07:30:00,64.6,61.4,30.04,North,0,0.0,0.0,89,0.00,,,0.00,WUHU216HW,2017-07-25 11:30:00,
2017-07-25 07:35:00,64.6,61.4,30.04,North,0,0.0,0.0,89,0.00,,,0.00,WUHU216HW,2017-07-25 11:35:00,
2017-07-25 08:00:00,65.0,61.8,30.05,North,0,0.0,0.0,89,0.00,,,0.00,WUHU216HW,2017-07-25 12:00:00,
2017-07-25 08:05:00,65.0,61.8,30.05,North,0,0.0,0.0,89,0.00,,,0.00,WUHU216HW,2017-07-25 12:05:00,
2017-07-25 08:30:00,65.3,62.0,30.06,North,0,0.0,0.0,89,0.00,,,0.00,WUHU216HW,2017-07-25 12:30:00,
2017-07-25 08:35:00,65.3,62.0,30.06,North,0,0.0,0.0,89,0.00,,,0.00,WUHU216HW,2017-07-25 12:35:00,
2017-07-25 09:00:00,66.8,62.7,30.07,North,0,0.0,0.0,87,0.00,,,0.00,WUHU216HW,2017-07-25 13:00:00,
2017-07-25 09:05:00,66.8,62.7,30.07,North,0,0.0,0.0,87,0.00,,,0.00,WUHU216HW,2017-07-25 13:05:00,
2017-07-25 09:30:00,66.8,62.5,30.07,North,0,0.0,0.0,86,0.00,,,0.00,WUHU216HW,2017-07-25 13:30:00,
2017-07-25 09:35:00,66.8,62.5,30.07,North,0,0.0,0.0,86,0.00,,,0.00,WUHU216HW,2017-07-25 13:35:00,
2017-07-25 09:59:00,69.8,63.7,30.08,North,0,0.0,0.0,81,0.00,,,0.00,WUHU216HW,2017-07-25 13:59:00,
2017-07-25 10:00:00,69.8,63.7,30.08,North,0,0.0,0.0,81,0.00,,,0.00,WUHU216HW,2017-07-25 14:00:00,
2017-07-25 10:05:00,69.8,63.7,30.08,North,0,0.0,0.0,81,0.00,,,0.00,WUHU216HW,2017-07-25 14:05:00,